Terug naar catalogus

COSMOS 886 DEB

ActiefLEO
NORAD 9724·DEBRIS·🇷🇺 Russia

Gelanceerd Dec 27, 1976 vanaf Baikonur Cosmodrome

Loading…

Volgende Passages (komende 24 uur)

TLE

VersSource: Space-Track

Epoch: Sep 14, 2026, 00:52 UTC

1 09724U 76126V   26257.03672960  .00000600  00000-0  29607-3 0  9992
2 09724  65.8186 276.7648 0762795 121.6719 246.1026 13.27504349349387

Volg COSMOS 886 DEB in realtime met AllMySat

Download on the App Store